Wind_Speed
15 14 13 12 11 11 11 11 12 12 13 12 12 11 11 11 12 12 13 14 14 14 14 14 14 15 15 15 14 14 13 12 12 13 13 14 13 12 11 11 10 10 10 10 10 10 10 11 12 12 12 12 13 13 12 11 11 11 11 10 10 10 11 11 11 12 13 15 16 17 18 18 19 19 19 18 18 18 18 17 16 15 15 15 16
15 14 12 11 10 10 10 10 10 11 12 11 11 11 11 11 11 11 12 13 13 14 14 14 14 14 14 14 13 12 11 11 11 12 12 12 12 11 10 9 9 9 9 9 9 10 10 12 12 12 12 13 13 12 11 11 11 11 10 10 11 11 11 12 13 15 16 18 19 20 21 21 21 20 20 20 20 19 19 18 17 17 17 17 17
14 14 13 11 10 9 9 9 9 10 10 10 11 11 10 10 10 10 11 11 12 13 13 14 15 15 14 13 12 11 10 9 9 10 11 11 11 10 9 9 8 8 8 8 9 10 11 12 13 12 12 12 11 11 10 10 10 10 10 11 12 13 14 15 17 19 20 21 22 22 22 21 21 21 21 21 20 19 19 18 18 17 17 17 17
13 13 13 11 10 9 9 9 9 9 9 9 10 10 10 9 9 9 10 10 11 11 12 13 14 14 14 13 12 11 9 8 8 9 10 11 11 10 9 9 8 8 7 8 9 11 12 13 12 11 11 11 10 10 10 10 10 11 12 13 14 16 17 19 21 22 23 23 23 23 22 22 22 21 21 21 20 19 19 18 18 17 17 18 18
11 11 11 11 10 10 8 8 7 8 8 9 9 9 9 8 8 9 9 9 9 10 10 11 13 13 13 12 12 11 9 7 7 8 9 10 10 10 9 9 9 8 8 9 11 12 13 12 10 9 10 10 10 10 11 11 12 13 14 16 17 19 21 23 24 24 24 24 23 23 22 22 22 22 21 21 20 19 18 18 17 17 18 18 18
10 9 10 10 10 10 9 8 7 7 7 8 8 8 8 8 7 8 8 8 9 9 9 10 11 11 11 11 11 10 9 7 7 7 8 9 10 10 10 10 10 10 10 12 12 13 12 10 9 9 10 11 11 11 12 13 14 16 17 19 21 23 24 25 25 24 24 23 23 22 22 22 21 21 20 20 19 18 17 17 17 17 18 18 18
9 8 8 8 9 9 10 9 8 7 7 7 8 7 8 7 7 8 9 9 9 8 8 9 10 10 10 10 10 9 9 7 6 7 8 9 10 10 11 11 11 12 12 13 13 12 10 9 9 10 11 12 12 13 15 16 17 19 21 23 25 25 25 24 24 24 23 22 21 21 20 20 20 19 19 18 18 17 17 17 17 17 17 18 18
9 8 8 7 7 8 9 9 8 8 8 7 7 6 6 6 6 7 8 8 8 7 7 7 8 9 9 8 9 9 9 7 6 7 8 9 10 10 11 12 12 13 13 13 12 10 9 9 10 11 12 13 15 16 18 19 21 23 25 26 25 25 24 23 23 22 21 20 20 20 19 19 19 18 18 18 17 17 17 17 17 17 18 18 18
9 9 8 7 6 7 7 7 7 8 8 7 6 6 5 4 5 6 6 7 7 6 6 6 7 8 8 8 8 9 8 7 7 7 8 9 10 11 12 13 13 13 13 12 11 9 9 9 10 12 13 15 17 19 21 23 24 25 25 25 24 24 23 22 22 21 20 20 19 19 19 19 19 18 18 18 17 17 17 17 17 17 17 17 18
9 9 8 8 7 7 6 6 6 6 7 6 6 6 6 5 5 5 6 6 7 6 5 6 6 7 7 7 8 8 7 7 7 8 9 10 10 11 13 14 14 13 12 11 10 9 9 10 11 13 16 18 20 22 23 25 25 25 24 24 23 23 22 22 21 20 20 19 19 19 19 19 18 18 17 17 16 16 16 16 16 16 16 16 16
9 8 8 8 8 7 6 5 6 6 6 6 6 6 5 5 4 4 5 6 6 5 6 6 6 7 8 8 8 7 7 7 8 9 10 10 11 12 14 14 13 12 11 10 9 9 9 11 13 16 19 21 23 24 25 25 24 24 23 23 22 22 21 21 20 20 19 19 18 18 18 17 17 16 16 15 15 15 15 16 16 16 16 16 16
8 8 8 8 8 7 6 6 6 6 6 6 6 6 5 4 4 4 5 5 5 5 6 6 6 7 8 9 8 7 8 8 8 9 10 11 13 14 14 14 13 12 11 10 9 9 10 13 16 19 22 23 24 24 24 24 23 23 23 22 22 21 20 20 19 19 18 18 17 17 16 16 16 15 15 15 15 15 15 15 15 15 15 15 16
8 8 8 8 7 7 6 6 6 6 6 6 6 6 5 5 4 4 5 5 5 5 6 6 6 7 8 9 10 9 8 8 8 9 10 12 13 14 14 14 13 12 10 10 9 10 12 15 19 21 23 24 24 24 23 23 23 22 22 21 20 20 19 19 18 18 17 16 16 16 15 15 14 14 13 13 14 14 14 14 14 14 14 15 15
8 8 8 8 7 7 6 6 6 6 6 7 6 6 5 5 5 5 5 5 5 5 5 5 6 7 8 10 11 10 8 7 8 8 9 10 12 13 13 13 13 12 11 10 10 12 14 18 20 22 23 24 24 23 23 22 22 21 20 20 19 19 18 18 17 16 15 15 14 14 13 13 13 12 12 13 13 13 13 13 14 14 15 15 15
8 8 8 8 7 7 7 6 6 6 7 7 7 6 6 6 5 5 5 5 5 5 5 5 5 5 6 9 10 11 9 8 7 8 8 9 10 11 12 12 12 12 12 12 12 14 16 19 21 22 22 22 23 22 22 21 20 20 19 18 18 17 17 16 15 14 14 13 13 12 12 12 12 13 13 13 13 14 14 14 15 15 16 16 17
9 8 8 7 7 7 6 6 6 6 6 7 7 7 7 6 5 5 6 6 5 4 4 5 5 5 5 6 7 9 10 9 8 7 7 8 9 10 11 11 11 12 12 13 14 15 17 19 21 21 22 22 22 22 21 20 19 18 18 17 16 15 15 14 13 13 12 12 12 12 12 13 13 13 14 14 14 15 15 15 16 16 17 18 19
10 9 8 7 6 6 6 6 6 6 6 6 7 7 7 6 5 4 5 5 5 4 3 4 5 5 5 5 5 5 7 8 7 6 5 6 7 9 10 11 11 11 12 14 15 16 17 19 20 21 22 22 22 21 20 19 18 17 16 15 14 14 13 12 12 12 12 12 12 13 13 14 14 14 14 15 15 15 16 16 17 17 18 19 20
10 9 8 7 6 6 6 6 6 6 5 5 6 7 6 6 5 4 3 4 4 4 3 4 4 4 4 4 4 3 4 6 6 4 4 6 7 8 10 11 11 11 13 16 17 18 18 19 20 21 22 21 20 19 18 17 16 15 14 13 13 12 12 11 11 11 12 12 13 14 14 14 15 15 15 15 15 16 16 17 18 18 18 19 19
10 9 9 8 8 7 7 7 6 6 6 6 6 6 6 5 5 4 3 2 3 4 4 3 3 4 4 4 4 3 4 5 4 4 5 7 8 9 10 11 12 13 15 17 19 20 20 20 20 21 21 20 18 17 16 15 14 13 12 11 11 10 10 10 11 11 12 13 14 14 15 14 14 14 14 14 14 15 16 16 17 17 18 18 18
10 10 9 9 8 8 7 7 7 7 6 6 6 6 5 5 5 4 3 2 3 3 3 3 3 4 5 5 4 4 5 4 4 5 6 7 9 10 10 11 12 14 16 18 19 20 21 21 21 20 19 18 17 15 14 13 12 10 10 9 9 9 10 10 11 12 13 14 14 14 14 13 13 13 13 13 14 15 15 16 16 16 17 17 17
11 10 10 9 9 9 9 8 8 7 7 6 6 6 5 5 4 4 4 3 3 3 2 3 5 6 7 7 6 6 6 4 4 7 7 7 10 11 10 11 13 14 17 18 19 20 21 21 21 20 18 17 15 13 12 10 9 8 8 8 9 9 10 11 13 14 14 14 14 13 13 12 12 12 13 13 14 14 15 16 16 17 17 17 17
12 11 10 10 10 10 10 8 8 8 7 6 6 6 5 5 4 4 4 4 4 3 2 3 5 6 7 7 6 6 5 4 4 6 6 7 9 10 11 13 14 16 17 18 19 20 20 21 20 19 17 15 13 12 10 8 7 7 7 8 9 10 11 12 14 15 15 14 13 12 12 12 12 12 13 13 14 14 15 16 17 18 18 18 19
12 12 11 11 11 11 10 9 9 8 8 7 7 6 6 5 4 4 4 4 4 4 3 3 4 5 5 6 7 7 6 6 5 6 6 8 10 11 12 13 14 16 17 18 19 19 20 20 19 17 16 14 12 10 8 6 6 6 7 8 9 11 13 14 15 16 15 14 12 11 11 12 12 13 13 14 15 16 17 17 18 19 20 21 22
12 12 11 11 11 11 11 10 9 8 8 7 7 6 6 5 4 4 4 3 3 3 3 4 4 5 5 6 6 6 6 6 7 7 7 8 10 12 13 13 13 15 17 18 19 19 19 19 18 16 14 12 10 8 6 5 5 6 7 9 11 13 15 16 17 17 15 13 11 11 11 12 13 14 15 16 17 18 18 18 19 21 22 24 26
12 11 11 11 11 12 11 10 9 9 8 7 7 7 6 5 4 4 3 3 3 3 4 4 5 5 6 6 5 6 6 6 6 6 5 6 9 11 13 13 13 15 16 18 18 18 18 17 16 14 12 10 8 6 4 4 5 6 7 10 12 14 16 17 17 17 15 13 11 11 12 13 14 16 17 19 19 19 19 19 20 22 24 26 28
12 11 11 11 11 12 12 12 11 10 9 8 7 7 6 5 5 5 4 3 3 3 4 4 5 5 4 4 4 4 5 5 5 4 4 5 8 11 12 13 13 15 16 17 17 17 16 15 13 11 10 8 6 4 3 4 5 7 8 11 13 15 16 17 17 17 15 12 11 12 13 15 17 18 19 21 20 19 19 19 20 22 23 25 27
13 13 12 12 11 12 13 13 12 12 11 9 8 8 7 6 6 6 5 4 4 4 3 4 4 4 3 3 3 4 4 4 4 4 4 5 7 10 12 14 15 15 16 17 16 14 14 13 11 9 7 6 4 3 3 5 6 8 9 11 14 15 17 17 18 17 14 12 12 13 15 17 19 20 21 22 21 18 18 18 19 20 22 24 25
15 15 14 13 12 13 13 14 13 13 12 10 9 9 8 8 8 7 7 6 5 5 4 4 4 4 4 4 3 3 3 3 4 4 4 5 7 9 12 14 16 16 16 16 14 13 12 11 9 7 6 5 3 2 3 5 7 9 11 13 15 16 17 18 18 16 14 12 13 15 17 19 20 21 22 22 20 17 16 17 17 18 20 22 23
17 17 16 15 14 14 14 15 15 14 13 12 11 11 10 9 9 8 7 7 6 5 5 4 5 5 5 5 4 3 3 3 4 5 5 5 6 9 11 14 16 17 16 15 14 13 11 10 8 7 6 4 2 1 4 7 9 11 13 15 16 17 18 18 17 15 13 13 14 17 19 20 21 22 22 22 18 16 16 16 16 16 18 20 22
19 19 18 17 16 16 15 16 16 15 14 14 13 13 11 10 10 9 9 8 6 6 5 5 5 5 5 5 5 4 4 4 5 6 6 6 7 9 12 14 16 17 16 15 13 12 11 9 8 8 6 3 1 1 5 8 10 13 15 16 17 18 18 17 16 14 14 14 16 18 20 21 22 22 22 20 17 16 16 16 15 15 16 19 20
21 21 20 19 18 17 17 16 17 16 15 15 15 14 13 12 11 11 10 9 8 7 7 6 6 6 6 6 6 5 5 6 6 6 6 6 8 10 13 15 16 16 16 14 12 11 10 10 9 8 6 3 2 2 6 9 11 14 16 17 18 18 17 16 15 15 15 16 18 20 21 22 23 22 20 17 16 16 17 17 16 14 15 17 19
23 22 21 21 20 19 18 18 17 17 16 16 15 15 14 13 13 12 12 11 10 9 9 8 7 7 7 7 7 7 7 7 7 7 7 8 10 12 13 15 15 15 14 13 12 11 10 10 9 8 6 4 3 4 7 10 13 15 17 18 17 17 16 15 15 16 16 18 20 22 22 22 21 19 17 16 16 17 18 18 16 14 14 15 16
24 23 22 22 21 21 20 19 18 18 17 17 16 16 15 14 14 14 13 12 11 11 11 10 9 8 8 8 8 9 9 8 8 9 9 10 11 13 14 14 14 14 13 12 11 10 10 10 9 9 8 6 5 5 7 11 14 15 17 18 18 16 15 14 15 16 17 19 21 22 21 20 18 17 17 17 18 20 20 18 15 13 13 14 16
24 24 23 22 22 22 22 21 20 19 18 18 18 17 16 15 15 15 14 13 12 12 13 12 11 11 10 9 9 10 10 10 10 10 11 12 13 15 15 15 15 14 13 12 11 11 11 11 10 9 9 7 5 7 8 11 13 14 16 17 17 17 16 14 14 15 17 19 20 19 18 18 17 17 17 18 20 22 21 17 13 12 12 14 16
23 23 22 22 23 23 23 23 23 22 20 19 19 19 18 17 16 15 15 14 13 13 13 13 13 14 13 12 11 11 11 11 11 11 12 13 15 17 17 17 16 15 14 13 12 12 12 12 12 10 9 7 6 8 10 12 14 14 15 16 17 17 16 15 14 15 17 18 18 17 17 16 17 18 19 20 21 22 21 17 13 11 13 15 16
24 23 22 22 23 24 24 25 25 24 23 22 21 21 20 18 17 16 15 14 14 13 13 13 14 15 15 14 13 13 13 12 12 13 13 14 17 18 19 19 17 16 15 15 14 14 13 13 12 12 10 8 8 10 12 13 14 15 16 16 16 16 16 15 14 15 16 16 16 16 17 17 18 20 21 21 21 21 20 17 14 13 13 15 17
26 25 24 24 23 24 25 26 26 27 26 25 24 23 22 21 19 18 17 16 15 15 15 14 15 16 17 16 15 16 16 15 14 14 14 15 17 20 20 20 19 18 18 17 17 17 16 15 14 13 11 10 9 12 14 14 14 16 17 17 17 16 15 14 14 14 14 15 15 17 18 18 20 22 22 21 21 20 19 18 16 15 15 17 18
28 27 26 25 25 25 25 25 26 27 28 28 28 27 25 23 22 21 20 19 18 17 16 16 16 16 17 17 17 19 19 17 16 16 16 16 18 21 22 21 21 20 20 20 20 19 19 18 16 14 13 12 12 13 15 16 15 17 18 16 17 18 16 14 13 13 14 15 15 16 18 19 21 23 23 21 20 20 20 20 19 17 17 18 19
29 29 28 27 26 26 25 25 25 26 27 28 29 29 28 27 25 24 23 21 20 19 18 18 17 17 17 17 18 20 20 19 18 18 18 19 20 21 23 23 23 23 23 22 22 22 21 20 19 17 16 15 14 14 16 17 17 19 19 15 15 18 17 15 14 13 13 15 16 16 18 19 21 23 24 22 21 20 21 22 21 19 18 18 19
29 29 29 29 28 28 26 25 25 26 27 28 29 29 29 28 28 26 25 23 22 21 20 19 19 18 18 18 18 20 21 21 21 21 21 22 22 23 24 25 26 26 26 25 25 25 24 23 22 20 18 17 16 15 16 18 19 20 20 17 14 16 17 16 15 14 13 15 16 16 18 20 22 23 24 23 22 21 21 22 22 20 18 18 19
29 29 30 30 30 30 29 28 26 26 27 28 29 29 29 29 28 27 26 25 24 22 21 21 20 20 19 19 19 20 21 22 22 24 24 25 25 26 26 27 28 29 29 28 28 27 27 25 24 23 22 19 17 16 17 18 20 21 20 18 16 16 17 17 17 16 14 14 16 17 18 20 22 23 23 23 23 22 22 22 22 22 20 20 20
29 29 30 31 32 32 31 30 29 28 28 28 28 29 29 29 29 28 28 27 26 25 24 23 22 22 21 21 20 20 21 22 23 24 26 27 28 28 28 29 30 31 31 31 31 30 29 28 26 25 25 21 18 18 18 19 21 22 20 19 18 17 17 17 18 18 16 16 17 18 19 20 22 24 24 24 24 23 23 23 23 22 21 21 21
30 30 30 31 32 32 32 31 31 30 29 27 27 27 28 29 30 30 29 28 28 28 27 27 26 24 23 23 23 23 23 22 22 23 25 27 29 30 31 32 32 33 34 34 33 33 32 31 29 28 27 23 19 19 20 21 22 21 19 19 19 18 18 17 17 18 18 17 19 20 20 22 24 25 25 25 26 25 23 23 23 22 21 21 21
30 30 31 31 31 31 31 32 31 31 29 27 26 26 27 28 29 31 31 30 30 30 30 29 29 28 27 26 25 25 25 24 23 23 24 25 26 28 30 32 34 35 36 35 35 35 34 34 32 30 28 24 21 20 22 23 22 21 19 19 19 19 19 18 18 19 19 18 20 21 21 23 25 26 26 26 26 25 24 24 24 22 20 20 21
33 32 32 31 31 31 31 31 31 30 29 27 26 26 26 26 28 30 31 32 32 32 31 31 31 30 30 29 28 27 26 25 24 24 24 24 25 26 27 29 31 33 35 36 36 36 36 35 34 31 29 27 24 22 22 23 22 21 20 20 20 20 19 18 19 21 20 20 21 22 22 23 25 27 27 27 27 26 24 24 24 22 20 20 21
35 34 33 32 32 31 31 31 30 30 29 27 26 26 25 26 27 28 31 32 33 33 33 32 32 32 31 31 30 29 28 28 27 25 24 24 24 26 26 27 28 29 30 33 34 35 36 36 35 33 31 29 27 23 22 23 22 21 21 20 20 20 20 19 20 21 22 22 22 23 23 23 25 27 27 27 28 26 25 24 24 22 20 20 21
35 35 34 34 33 32 31 31 30 30 29 27 26 26 26 26 27 28 30 32 33 34 34 33 33 32 32 32 31 30 30 30 28 27 25 24 24 25 26 26 26 26 26 27 28 30 32 34 35 34 32 30 28 25 23 22 22 21 20 20 20 20 21 20 20 22 23 23 23 24 24 23 24 25 26 27 28 26 25 24 23 21 20 20 21
35 35 35 35 34 33 32 32 32 31 28 27 26 26 26 26 27 29 31 33 34 34 34 33 33 33 32 32 32 31 31 30 29 27 26 25 25 25 25 25 25 25 24 24 24 25 26 28 30 31 30 28 27 25 23 22 21 20 19 18 19 21 22 22 21 23 24 24 24 25 25 24 23 24 24 25 26 25 24 24 24 22 21 21 22
34 35 35 34 34 34 33 33 33 31 29 27 27 26 26 26 28 30 32 34 35 35 34 33 33 33 32 32 32 31 31 30 29 28 26 26 27 26 25 24 24 24 22 21 22 23 23 23 24 25 25 26 26 25 23 21 20 19 18 17 18 21 23 23 22 23 24 25 26 27 26 24 24 23 23 23 24 23 23 23 24 24 23 23 23
33 34 34 34 34 34 34 33 33 32 31 29 28 28 27 27 29 30 32 34 35 36 34 33 32 32 32 32 31 31 31 30 29 27 27 27 27 26 25 23 23 23 20 18 19 21 20 21 21 21 22 24 25 24 22 21 19 18 17 17 19 22 23 23 23 23 24 25 26 27 27 25 24 24 23 23 23 22 22 23 23 24 25 25 25
31 31 33 34 34 34 33 33 33 33 32 30 29 29 28 28 30 31 32 34 35 35 35 33 33 33 32 32 31 31 30 29 28 27 26 26 27 26 25 24 24 20 16 16 19 20 20 20 20 21 22 24 24 23 22 20 20 19 19 19 21 22 23 23 23 23 24 25 26 27 27 26 25 24 24 24 25 23 22 22 23 24 26 27 28
Wind_Direction
132 130 130 131 133 134 135 133 130 129 128 126 127 128 128 127 125 124 122 119 118 117 117 116 114 111 107 104 101 100 100 101 102 101 97 95 94 93 92 91 92 93 92 89 86 80 74 69 69 71 73 75 74 73 71 70 68 65 63 61 59 58 58 58 61 64 67 68 68 68 66 65 64 64 63 62 61 58 56 54 52 50 48 47 47
132 131 132 135 139 142 141 135 132 132 128 126 129 130 129 128 128 126 123 120 119 117 117 117 116 113 109 107 105 103 103 105 107 104 100 97 95 94 94 95 95 94 91 87 83 76 69 68 72 75 76 76 74 72 71 68 64 62 61 62 63 65 67 70 73 73 73 72 71 70 69 68 66 65 64 63 61 59 57 55 52 50 48 47 46
135 136 138 141 146 147 144 139 136 132 126 124 126 126 124 124 125 125 123 120 118 117 116 116 114 112 110 110 108 106 106 106 106 103 101 98 97 98 99 101 100 97 93 86 80 75 71 73 77 78 77 75 72 70 68 65 64 64 65 67 71 75 78 80 79 77 75 74 72 71 70 69 68 66 65 64 62 60 57 54 52 49 47 46 45
140 141 143 147 150 151 149 145 142 136 128 123 122 122 120 119 118 120 120 117 116 117 116 115 113 110 109 108 106 105 104 101 100 100 101 101 101 102 102 103 104 103 97 88 82 79 79 81 82 79 75 72 69 66 64 66 68 70 72 76 80 83 84 83 81 79 77 76 75 74 72 70 69 67 66 65 63 60 57 54 51 48 46 44 42
144 144 145 149 153 154 153 150 150 143 133 125 119 116 113 113 112 112 115 115 117 118 116 114 110 108 107 106 104 103 101 96 95 100 103 105 104 99 97 98 99 99 94 87 84 84 86 86 84 78 71 67 64 64 67 71 75 78 81 85 87 86 85 83 82 81 79 78 77 75 73 72 70 69 67 65 62 60 56 53 49 46 43 41 40
145 146 144 149 154 154 153 154 157 151 137 128 120 117 114 112 111 115 123 126 124 123 120 115 110 108 107 106 103 100 95 93 94 99 100 101 99 95 94 91 90 90 87 86 87 88 88 85 80 71 64 62 63 68 73 78 83 86 89 90 89 87 86 86 85 84 82 81 79 77 76 74 72 70 68 65 62 58 54 51 47 44 41 39 37
146 147 144 147 152 151 150 153 157 157 145 133 126 122 120 117 120 127 133 131 125 127 126 122 118 115 112 108 103 93 85 83 87 92 95 96 96 95 94 89 86 86 86 88 89 89 84 76 68 63 63 66 71 78 83 88 91 92 93 92 91 91 91 90 88 87 85 83 82 80 78 75 73 70 67 64 60 56 52 48 45 43 40 37 35
147 145 144 146 148 145 145 146 150 153 148 140 133 125 123 127 129 123 118 114 112 121 128 127 127 124 121 113 101 89 79 75 77 87 96 98 98 98 96 92 88 88 90 91 90 85 75 66 62 65 70 77 83 88 92 95 96 95 95 96 96 95 94 92 90 88 87 84 82 79 76 74 71 68 64 61 57 53 49 46 43 41 38 36 34
145 141 142 141 139 137 137 141 144 146 146 144 142 135 135 138 129 112 99 98 103 115 129 134 135 132 125 116 103 91 83 79 81 93 102 102 101 100 96 93 92 93 93 91 86 78 70 67 69 76 83 89 94 97 99 100 99 100 100 99 98 96 94 92 90 88 85 82 79 76 73 70 66 63 60 57 54 50 47 43 40 38 36 33 32
140 136 138 135 133 133 133 139 141 143 147 150 151 150 152 150 133 116 103 99 102 117 138 142 142 139 125 113 105 98 92 85 88 102 108 106 103 100 96 95 95 95 93 87 78 70 70 74 81 88 95 99 102 104 104 104 104 103 102 100 97 95 93 91 88 85 82 79 75 72 68 65 62 60 57 53 50 46 43 39 36 33 30 28 26
138 136 138 136 134 136 136 140 145 148 151 156 161 165 167 161 145 126 113 107 109 124 144 146 145 143 133 123 118 111 99 87 92 106 111 112 110 104 100 98 98 96 92 83 72 67 74 84 93 101 105 107 109 109 108 107 105 103 101 99 96 94 91 89 85 82 78 75 71 68 64 61 58 54 51 46 42 38 34 31 28 25 22 19 17
141 142 144 140 138 138 140 144 151 154 154 158 166 175 178 170 162 141 127 124 124 129 135 139 145 144 139 134 128 119 102 90 98 112 119 122 117 110 106 105 103 99 93 83 73 73 85 97 105 110 112 113 112 111 109 107 105 102 100 98 96 93 89 85 82 78 74 71 67 63 59 55 51 46 42 37 33 29 26 22 19 17 14 11 9
150 151 147 143 140 141 150 156 160 161 160 165 169 177 179 173 172 153 144 144 135 128 125 132 149 150 144 134 124 119 110 103 110 123 130 130 123 116 113 112 110 104 96 86 80 86 98 107 113 115 116 115 113 111 109 106 104 102 100 98 94 90 86 82 78 74 70 65 60 56 51 47 42 38 33 28 24 19 15 12 8 5 3 1 359
158 156 150 146 146 149 158 163 165 165 164 169 172 177 176 172 170 158 157 158 142 133 127 135 154 157 147 132 122 121 122 120 125 136 141 134 126 122 120 120 118 112 103 93 91 99 107 113 116 117 117 115 113 111 108 106 105 103 99 95 90 86 82 78 73 68 63 57 52 47 41 36 31 26 22 18 14 9 6 2 359 356 354 352 350
163 162 157 153 152 153 157 158 162 165 164 168 171 175 176 172 166 159 165 163 152 146 140 141 151 157 151 136 128 128 132 139 144 151 152 137 128 126 125 124 121 116 107 98 97 104 112 116 118 118 116 114 111 109 108 107 104 100 95 90 86 82 77 72 67 61 55 49 42 35 29 23 18 15 13 11 8 5 2 358 355 352 350 348 347
169 171 167 159 157 156 155 154 156 162 166 170 176 178 178 173 164 162 164 161 160 163 155 149 148 157 157 142 136 136 139 148 156 161 158 145 134 131 131 127 121 114 106 100 101 108 114 117 118 118 116 114 112 112 110 107 102 97 92 87 82 76 71 64 57 50 43 36 29 22 17 14 12 11 11 9 7 4 0 357 354 351 349 347 346
177 179 177 171 169 164 158 154 157 164 167 171 180 181 176 171 167 164 163 162 166 173 171 159 154 160 156 145 149 149 144 147 155 167 170 161 147 140 139 133 124 115 108 108 110 113 115 118 120 118 116 116 116 114 110 105 100 94 89 84 77 70 62 53 45 36 28 21 16 13 12 11 11 10 9 7 4 1 357 354 351 349 347 346 344
181 183 183 181 181 176 166 162 164 166 166 171 177 178 174 169 164 163 169 172 171 174 181 173 171 173 159 149 157 160 147 141 149 174 186 177 161 150 148 139 130 123 117 118 119 119 120 121 121 119 118 118 117 113 108 102 97 92 86 79 71 62 52 40 30 21 14 10 8 9 10 11 10 8 6 3 359 355 351 349 346 345 343 342 340
183 185 185 184 189 186 174 171 172 169 169 175 175 174 173 167 161 162 167 179 180 179 184 184 189 191 174 162 164 171 165 152 162 198 195 181 166 159 156 146 138 132 127 126 126 125 125 124 123 120 119 118 115 111 105 100 94 88 81 72 63 52 38 25 16 8 5 5 6 9 11 11 9 5 1 356 353 351 347 345 342 341 339 338 337
187 187 189 188 192 192 181 176 176 174 172 175 177 175 174 169 164 164 162 166 179 178 178 178 180 187 188 187 186 189 189 185 190 192 188 176 162 160 161 152 144 137 133 131 130 129 129 128 124 122 120 118 115 110 104 98 92 83 73 62 50 37 22 11 4 1 1 4 8 11 11 8 4 359 355 352 349 347 345 343 341 339 338 337 336
191 191 193 195 197 197 191 185 181 178 175 178 182 177 172 174 171 171 174 172 177 178 172 172 173 176 188 198 196 194 198 201 188 180 180 171 158 157 162 158 149 140 136 135 135 134 133 130 127 125 123 121 118 113 106 98 89 77 63 47 33 20 8 1 358 359 2 6 10 11 7 2 358 354 352 350 347 345 344 343 343 342 341 339 339
196 196 197 201 204 201 199 198 189 182 180 183 186 181 174 176 174 179 186 181 180 187 178 176 180 177 182 190 185 181 187 191 190 186 180 169 158 155 163 161 150 143 140 140 140 138 135 132 130 129 128 127 123 116 109 98 84 67 48 30 17 6 359 356 357 0 4 8 10 6 360 356 353 351 349 348 347 347 347 347 348 348 347 347 346
202 202 201 205 208 205 202 205 199 188 186 189 190 190 183 175 176 184 189 183 182 192 184 176 182 178 177 178 170 165 172 175 168 159 157 163 162 159 162 158 150 147 146 144 144 142 139 136 134 134 134 132 127 120 110 94 70 48 28 13 4 358 354 355 358 1 5 7 4 358 353 350 348 347 346 347 347 348 349 351 354 355 355 354 351
210 207 206 208 211 210 205 206 207 198 196 195 191 194 190 178 181 188 191 186 181 186 182 172 172 173 174 176 172 167 171 171 156 143 143 156 163 159 156 154 152 152 150 148 148 146 144 141 140 140 139 136 131 122 107 81 50 25 8 360 357 355 354 356 357 360 2 1 357 352 349 346 343 345 347 349 349 350 353 357 1 2 1 358 355
215 213 213 213 213 215 211 208 211 209 207 202 196 199 195 185 187 193 199 197 187 183 177 169 165 167 169 172 175 175 177 179 170 157 146 155 163 159 154 156 158 157 154 152 151 150 149 147 145 144 143 140 132 117 90 57 28 7 355 351 353 354 353 353 353 356 358 357 354 351 347 344 344 348 350 351 352 353 358 3 5 4 2 359 356
217 217 219 219 216 217 214 210 212 213 213 209 203 205 201 197 200 202 206 205 200 191 173 164 163 161 162 166 174 181 183 188 185 171 159 163 168 163 159 163 164 161 158 156 156 154 152 149 148 147 145 139 125 97 58 24 6 355 349 347 350 351 349 349 350 352 353 354 353 350 347 348 348 349 351 352 353 356 1 3 3 2 360 357 354
218 220 223 224 222 220 218 215 213 213 215 213 209 209 207 210 213 208 208 210 209 207 187 172 171 169 173 180 190 194 184 181 175 164 164 173 173 169 167 168 168 165 161 160 159 156 153 152 151 150 145 136 118 78 23 0 351 346 345 347 349 347 345 347 349 348 350 353 352 349 348 349 348 349 351 351 353 357 0 1 360 359 357 354 352
220 223 225 226 226 225 223 220 217 215 216 215 214 215 213 219 223 215 212 212 209 212 209 197 195 200 202 200 206 211 191 177 171 163 170 181 180 175 172 170 169 167 164 163 160 157 157 157 156 159 156 147 128 64 359 343 340 340 343 347 347 345 345 348 348 347 349 352 349 347 346 345 345 346 348 349 351 354 357 357 356 356 354 351 350
219 224 227 227 228 228 226 224 220 217 216 215 217 220 219 220 226 224 221 219 213 213 217 213 211 215 215 210 213 218 211 203 191 180 181 189 186 181 177 174 171 169 166 164 162 162 164 165 168 174 165 150 142 17 340 333 337 341 344 346 345 345 346 347 347 348 350 350 345 342 341 340 340 341 344 346 348 350 351 351 351 352 350 349 350
220 223 226 227 228 229 229 227 223 219 218 217 216 220 224 225 227 229 228 227 224 223 225 222 218 223 227 224 220 214 208 213 211 197 189 192 192 185 180 175 171 169 168 166 167 169 172 175 181 181 169 158 194 305 327 328 334 340 343 344 343 343 343 343 346 349 349 346 342 338 335 336 336 338 341 344 344 345 346 345 344 346 347 348 349
224 224 226 228 229 230 231 231 228 224 222 221 218 218 222 226 230 233 232 231 230 232 234 232 227 226 230 232 230 225 210 203 209 208 200 201 199 188 180 176 172 170 170 170 174 178 181 186 191 188 180 190 238 303 327 326 331 339 341 340 339 339 338 339 343 345 344 342 338 334 333 334 335 337 339 339 339 340 340 339 337 339 344 346 347
231 228 227 228 230 232 232 233 232 230 228 228 225 222 220 223 229 234 235 234 234 235 237 237 236 233 231 229 231 233 221 203 204 212 215 212 202 190 183 180 176 175 177 178 183 189 192 196 203 202 202 224 256 292 326 331 333 338 337 333 333 332 331 334 338 339 338 336 334 333 333 335 336 337 336 335 335 335 333 333 333 335 340 341 343
235 236 233 231 231 232 234 236 235 234 234 234 232 229 226 224 226 229 232 235 237 240 241 239 240 240 236 230 228 232 230 217 210 212 217 216 203 192 188 186 185 185 186 187 193 200 204 207 216 221 223 238 270 294 323 335 334 333 329 325 326 325 325 329 332 331 331 330 330 331 333 334 334 334 332 334 336 337 337 336 333 332 331 332 340
233 237 239 237 235 234 235 237 238 237 236 237 237 235 232 230 229 229 230 231 233 238 242 243 244 244 240 235 231 232 232 226 218 213 215 214 204 196 194 193 195 196 196 199 203 209 215 219 226 236 240 249 282 306 322 331 329 323 318 317 319 318 319 325 326 325 325 325 328 332 332 332 331 331 332 338 343 346 346 344 337 328 324 329 341
229 234 238 239 239 238 237 237 239 240 238 238 240 240 238 236 234 232 232 231 231 234 239 242 246 246 243 239 236 236 233 229 224 219 216 213 207 202 201 200 202 204 207 211 213 216 222 228 235 244 252 264 292 312 321 323 319 313 309 310 311 310 313 319 322 321 321 323 329 334 335 335 335 335 338 344 350 351 348 345 338 327 324 331 341
226 230 234 237 239 239 238 237 238 241 241 240 240 243 243 241 240 239 237 236 235 237 240 241 244 246 244 241 239 240 238 232 229 226 222 216 211 208 207 206 207 211 216 220 222 224 228 233 240 248 257 275 298 308 310 311 309 305 303 305 304 302 306 311 316 318 317 320 330 337 341 344 342 341 344 350 353 351 347 343 338 331 328 332 338
224 227 231 234 237 237 236 235 236 237 240 242 242 243 244 243 243 242 242 241 241 243 245 245 245 246 245 242 242 243 241 236 234 232 229 222 217 214 213 213 212 216 221 225 228 231 233 235 240 248 260 275 290 296 298 301 301 298 298 301 299 297 299 303 310 314 311 316 331 340 344 346 344 344 348 351 350 348 347 346 340 335 332 333 336
226 227 229 232 236 237 237 235 234 233 235 238 241 242 243 243 242 241 241 242 243 244 247 248 248 247 246 243 242 243 242 239 237 237 235 230 225 220 219 219 220 222 225 228 231 234 236 238 238 243 254 268 278 285 291 296 296 293 292 294 293 292 293 297 305 309 305 313 331 340 343 344 343 344 347 346 342 342 346 349 346 340 335 332 332
229 229 230 232 235 238 239 238 236 234 234 235 237 238 240 241 242 241 241 241 243 243 245 247 249 249 248 245 243 243 243 241 238 238 238 236 233 229 225 225 227 228 230 232 235 237 239 241 242 243 249 261 271 278 285 291 292 290 289 288 283 283 287 292 300 303 302 311 326 337 340 341 342 344 345 343 338 338 344 350 349 344 336 331 330
230 231 232 234 236 238 239 240 240 239 238 237 236 236 237 239 241 242 243 243 243 243 243 244 247 249 249 247 245 244 244 243 241 241 241 240 238 235 233 232 234 235 236 237 239 242 244 245 246 248 251 259 267 274 282 286 285 285 288 288 280 276 280 287 295 298 297 304 318 330 336 337 339 342 344 343 340 340 344 348 349 346 339 334 332
232 232 233 234 236 237 238 239 240 240 240 239 238 238 238 238 239 241 243 244 245 246 246 246 248 249 250 249 247 246 245 245 243 242 242 242 241 239 237 238 239 241 242 243 244 245 248 250 250 253 256 258 264 273 278 279 279 281 285 287 282 277 279 285 291 293 292 297 310 323 330 333 335 337 340 342 341 341 343 345 347 346 343 337 334
233 233 233 234 235 237 238 239 239 240 240 239 239 240 241 240 240 240 240 240 243 246 248 250 251 252 252 253 252 250 248 246 245 243 242 242 242 242 241 241 242 244 245 247 249 250 252 253 254 256 258 259 264 273 275 272 274 279 283 283 280 277 280 285 288 290 293 297 305 317 326 328 329 333 337 339 340 341 341 343 346 346 343 338 334
234 234 234 235 235 236 238 239 240 240 240 238 238 239 240 242 243 242 241 239 240 242 246 249 252 254 255 255 255 253 252 250 248 246 244 243 243 243 243 244 245 246 247 248 251 253 255 256 256 257 259 259 263 270 271 268 271 275 278 278 274 273 276 281 286 289 293 297 302 311 321 323 324 329 333 336 337 340 342 343 344 345 343 338 333
235 235 236 237 237 237 238 239 240 240 240 238 237 237 238 240 243 245 245 243 242 242 244 247 250 253 255 257 257 256 255 253 251 250 249 248 247 246 246 245 246 247 248 249 251 253 255 258 258 258 259 261 262 264 265 266 269 272 272 271 270 270 272 277 281 286 292 298 302 309 317 319 321 326 330 333 335 339 342 342 342 343 342 337 332
236 237 238 239 239 239 239 240 240 241 240 238 237 237 236 237 239 243 245 246 246 245 245 246 248 251 254 256 258 259 259 258 256 254 253 252 252 252 251 250 250 249 249 250 251 252 254 257 258 259 260 262 262 260 259 262 266 267 266 266 267 269 272 276 280 285 293 300 303 307 313 316 319 323 328 331 334 338 340 340 339 339 339 334 330
238 239 239 240 240 241 241 242 242 241 240 238 237 236 236 236 237 240 243 246 247 247 247 247 248 249 251 254 257 259 260 261 260 259 258 256 253 253 253 254 254 254 253 252 251 251 253 255 256 257 259 260 260 256 253 256 261 262 262 263 266 271 274 277 281 285 292 300 303 306 311 314 318 322 326 330 334 338 339 337 336 336 334 331 328
241 241 241 241 242 242 243 244 243 242 240 238 236 236 235 235 236 238 241 244 246 247 247 247 247 248 249 252 255 257 258 260 262 262 262 261 257 253 253 254 256 257 257 257 256 255 254 254 255 255 255 255 254 251 247 249 253 258 260 262 268 275 277 278 283 287 292 299 303 305 309 313 316 320 325 331 335 337 337 335 333 331 329 327 325
242 242 242 243 244 244 244 245 245 244 241 238 237 235 234 234 235 237 240 242 245 247 247 247 247 247 249 251 253 256 257 260 262 263 264 265 262 258 254 254 256 258 260 263 264 263 261 257 254 252 250 248 246 244 242 242 247 254 259 263 271 276 276 278 284 287 291 298 302 304 307 311 314 319 325 331 335 336 335 334 332 328 325 324 325
242 243 244 244 245 245 245 245 246 246 244 241 239 236 234 233 235 237 240 242 244 246 247 247 247 248 249 250 252 254 256 259 261 263 264 264 263 261 258 255 255 256 260 263 266 266 265 261 255 250 245 241 239 238 237 238 244 253 259 266 274 275 274 278 283 286 291 297 300 302 305 309 313 318 323 329 333 335 334 333 330 326 323 323 326
243 244 245 246 246 246 246 246 247 247 246 244 242 238 235 233 234 236 240 242 244 246 247 247 247 248 249 250 252 253 255 257 259 260 261 260 260 261 261 259 255 254 256 260 262 263 263 260 256 249 240 235 234 234 235 239 246 255 262 270 275 275 274 277 282 286 290 294 295 298 303 308 312 316 321 325 330 333 332 330 328 325 323 324 326
241 243 245 247 246 246 246 246 246 247 246 245 243 241 237 233 233 235 238 242 244 246 247 247 247 248 250 251 252 253 254 255 256 256 257 257 257 259 261 261 259 256 255 254 253 255 255 254 251 245 240 236 235 234 237 243 252 259 266 273 275 274 275 278 281 284 287 289 291 296 302 308 311 314 317 321 324 326 327 326 325 323 322 322 323
Height
3223 3223 3223 3224 3224 3225 3226 3226 3227 3227 3228 3228 3228 3228 3228 3228 3228 3228 3229 3229 3229 3229 3229 3229 3229 3228 3228 3228 3228 3228 3229 3229 3229 3229 3228 3228 3228 3228 3229 3229 3229 3229 3229 3229 3229 3229 3229 3228 3228 3227 3227 3227 3226 3226 3226 3225 3225 3224 3224 3223 3223 3223 3223 3223 3222 3222 3221 3221 3220 3219 3218 3218 3217 3216 3216 3215 3214 3214 3213 3212 3212 3211 3210 3209 3208
3225 3225 3225 3225 3226 3226 3227 3227 3228 3228 3229 3229 3229 3230 3230 3230 3230 3230 3230 3230 3230 3230 3230 3230 3229 3229 3229 3229 3229 3230 3230 3230 3230 3230 3229 3229 3230 3230 3230 3230 3230 3230 3230 3230 3230 3230 3230 3229 3229 3228 3228 3227 3227 3227 3226 3226 3226 3225 3225 3225 3224 3224 3224 3224 3224 3223 3222 3222 3221 3220 3220 3219 3218 3218 3217 3216 3216 3215 3215 3214 3213 3212 3211 3210 3209
3226 3226 3226 3227 3227 3227 3227 3228 3228 3229 3229 3230 3230 3230 3231 3231 3231 3231 3231 3231 3231 3231 3231 3231 3231 3230 3230 3230 3230 3231 3231 3231 3231 3231 3230 3230 3231 3231 3231 3231 3231 3231 3231 3231 3231 3231 3230 3230 3229 3229 3228 3228 3228 3228 3227 3227 3227 3226 3226 3226 3226 3226 3226 3225 3225 3224 3223 3223 3222 3222 3221 3221 3220 3220 3219 3218 3217 3217 3216 3215 3214 3213 3212 3211 3210
3227 3227 3227 3228 3228 3228 3228 3229 3229 3230 3230 3231 3231 3231 3232 3232 3232 3232 3232 3232 3232 3232 3232 3232 3231 3231 3231 3231 3231 3232 3232 3232 3232 3232 3231 3232 3232 3232 3232 3232 3232 3232 3232 3232 3232 3232 3231 3231 3230 3230 3229 3229 3229 3229 3228 3228 3227 3227 3227 3228 3228 3227 3227 3226 3226 3225 3225 3224 3224 3224 3223 3223 3222 3221 3221 3220 3219 3218 3218 3217 3216 3215 3214 3213 3212
3227 3228 3228 3229 3229 3229 3230 3230 3230 3230 3231 3231 3232 3232 3232 3233 3233 3233 3233 3233 3233 3233 3233 3233 3232 3232 3232 3232 3232 3233 3233 3233 3233 3233 3233 3233 3233 3233 3233 3233 3233 3233 3233 3233 3233 3232 3232 3231 3231 3231 3231 3231 3230 3230 3229 3229 3229 3229 3229 3229 3229 3229 3228 3228 3227 3227 3227 3226 3226 3226 3225 3224 3224 3223 3222 3222 3221 3220 3219 3218 3217 3216 3215 3214 3213
3228 3229 3229 3230 3230 3230 3231 3231 3231 3231 3232 3232 3232 3233 3233 3233 3234 3234 3234 3234 3234 3234 3233 3233 3233 3233 3233 3233 3233 3233 3234 3234 3234 3234 3234 3234 3234 3234 3234 3234 3233 3233 3234 3234 3233 3233 3233 3232 3232 3232 3232 3232 3231 3231 3231 3231 3231 3231 3231 3231 3231 3230 3230 3230 3229 3229 3229 3229 3228 3228 3227 3226 3226 3225 3224 3223 3222 3221 3220 3220 3218 3217 3216 3215 3214
3228 3229 3230 3230 3231 3231 3232 3232 3232 3232 3233 3233 3234 3234 3234 3235 3235 3235 3235 3234 3234 3235 3235 3234 3234 3234 3234 3234 3234 3234 3234 3234 3235 3235 3235 3235 3235 3234 3234 3234 3234 3234 3234 3234 3234 3234 3234 3234 3233 3233 3233 3233 3233 3232 3232 3233 3233 3233 3233 3233 3233 3232 3232 3232 3232 3232 3231 3231 3230 3230 3229 3228 3227 3227 3226 3225 3224 3223 3222 3221 3220 3219 3218 3217 3216
3229 3229 3230 3231 3231 3232 3232 3233 3233 3233 3234 3234 3234 3235 3235 3235 3235 3235 3235 3235 3235 3235 3236 3236 3235 3235 3234 3234 3234 3234 3234 3235 3235 3235 3235 3235 3235 3235 3235 3235 3235 3235 3235 3235 3235 3235 3235 3235 3235 3234 3234 3234 3234 3234 3235 3235 3235 3235 3235 3235 3235 3235 3235 3234 3234 3234 3233 3233 3232 3231 3231 3230 3229 3228 3227 3227 3226 3225 3224 3223 3222 3220 3219 3218 3217
3229 3230 3230 3231 3231 3232 3232 3233 3234 3234 3234 3235 3235 3235 3236 3236 3236 3235 3235 3236 3236 3236 3237 3237 3236 3236 3235 3235 3235 3235 3235 3236 3236 3236 3236 3236 3236 3236 3236 3236 3236 3236 3236 3236 3236 3236 3236 3236 3236 3236 3236 3236 3236 3236 3237 3237 3237 3237 3237 3237 3237 3237 3237 3237 3236 3236 3235 3234 3234 3233 3233 3232 3231 3230 3229 3228 3227 3226 3225 3224 3223 3222 3221 3219 3218
3230 3230 3231 3231 3232 3232 3233 3233 3234 3234 3235 3235 3235 3236 3236 3236 3236 3236 3236 3236 3237 3237 3238 3238 3238 3237 3237 3236 3236 3236 3236 3236 3236 3236 3237 3237 3237 3237 3237 3237 3237 3237 3237 3237 3238 3238 3237 3237 3237 3237 3237 3238 3238 3238 3239 3239 3239 3239 3240 3240 3240 3239 3239 3238 3238 3237 3237 3236 3236 3235 3234 3233 3233 3232 3231 3230 3229 3228 3226 3225 3224 3223 3222 3220 3219
3230 3231 3231 3232 3232 3233 3233 3234 3234 3235 3235 3235 3236 3236 3237 3237 3237 3237 3237 3238 3238 3238 3238 3238 3238 3238 3238 3238 3237 3237 3237 3237 3237 3237 3238 3238 3238 3238 3238 3238 3238 3238 3239 3239 3239 3239 3239 3239 3239 3239 3239 3240 3240 3240 3241 3241 3241 3241 3242 3242 3241 3241 3241 3240 3240 3239 3239 3238 3237 3237 3236 3235 3234 3233 3232 3231 3230 3229 3228 3226 3225 3224 3222 3221 3220
3231 3231 3232 3232 3232 3233 3234 3234 3235 3235 3235 3236 3236 3237 3237 3237 3237 3238 3238 3239 3239 3239 3238 3238 3239 3239 3239 3239 3239 3238 3238 3238 3238 3239 3239 3239 3239 3239 3239 3239 3240 3240 3240 3240 3240 3240 3240 3240 3240 3241 3241 3241 3242 3242 3243 3243 3243 3243 3243 3243 3243 3243 3242 3242 3241 3241 3240 3239 3239 3238 3237 3236 3235 3234 3233 3232 3231 3230 3228 3227 3226 3224 3223 3221 3220
3231 3232 3232 3233 3233 3233 3234 3235 3235 3235 3236 3236 3237 3237 3237 3237 3238 3238 3239 3239 3240 3239 3239 3239 3239 3240 3240 3240 3240 3239 3239 3239 3240 3240 3240 3240 3240 3240 3240 3241 3241 3241 3241 3241 3241 3242 3242 3242 3242 3242 3243 3243 3244 3244 3245 3245 3245 3245 3245 3245 3245 3245 3244 3244 3243 3242 3241 3241 3240 3239 3238 3237 3236 3235 3234 3233 3231 3230 3229 3227 3226 3224 3223 3221 3220
3232 3232 3233 3233 3233 3234 3234 3235 3235 3236 3236 3237 3237 3237 3238 3238 3238 3239 3239 3240 3240 3240 3240 3240 3240 3240 3240 3241 3241 3241 3241 3241 3241 3242 3242 3241 3241 3241 3242 3242 3242 3242 3242 3242 3243 3243 3243 3244 3244 3244 3245 3245 3246 3246 3246 3247 3247 3247 3247 3247 3246 3246 3246 3245 3244 3243 3243 3242 3241 3240 3239 3238 3237 3236 3234 3233 3231 3230 3229 3227 3226 3224 3223 3221 3219
3232 3233 3233 3234 3234 3234 3235 3235 3236 3236 3236 3237 3237 3238 3238 3238 3239 3239 3240 3240 3240 3240 3240 3241 3241 3241 3241 3241 3242 3242 3242 3243 3243 3243 3243 3242 3242 3243 3243 3242 3242 3243 3243 3243 3243 3244 3245 3245 3246 3246 3247 3247 3248 3248 3248 3248 3248 3248 3248 3248 3248 3247 3247 3246 3245 3244 3244 3243 3242 3241 3240 3238 3237 3236 3234 3233 3232 3230 3229 3227 3225 3224 3222 3221 3219
3232 3233 3234 3234 3234 3235 3235 3235 3236 3236 3237 3237 3238 3238 3238 3238 3239 3239 3240 3240 3240 3240 3241 3241 3241 3241 3242 3242 3242 3243 3243 3244 3244 3245 3244 3243 3243 3244 3243 3243 3243 3243 3243 3243 3244 3245 3246 3246 3247 3248 3248 3249 3249 3249 3249 3249 3249 3249 3249 3249 3249 3248 3248 3247 3246 3245 3244 3243 3242 3241 3240 3239 3237 3236 3234 3233 3232 3230 3228 3227 3225 3224 3222 3220 3219
3232 3233 3234 3234 3234 3235 3235 3236 3236 3237 3237 3238 3238 3238 3239 3239 3239 3239 3240 3240 3240 3240 3241 3241 3241 3242 3242 3242 3243 3244 3244 3244 3245 3245 3245 3244 3244 3245 3244 3244 3244 3244 3244 3244 3245 3246 3247 3248 3249 3249 3250 3250 3250 3250 3250 3251 3251 3251 3250 3250 3250 3249 3249 3248 3247 3246 3245 3244 3243 3241 3240 3239 3238 3236 3235 3233 3232 3230 3228 3227 3225 3223 3222 3220 3218
3232 3233 3234 3234 3234 3235 3236 3236 3237 3237 3238 3238 3239 3239 3239 3239 3239 3239 3239 3240 3240 3241 3241 3241 3241 3242 3242 3243 3243 3244 3244 3245 3245 3246 3246 3246 3245 3245 3245 3245 3244 3244 3245 3245 3246 3247 3248 3249 3250 3250 3251 3251 3252 3252 3252 3252 3252 3252 3251 3251 3251 3250 3250 3249 3248 3247 3246 3244 3243 3242 3240 3239 3238 3236 3235 3233 3232 3230 3228 3226 3225 3223 3222 3220 3218
3233 3233 3234 3234 3235 3235 3236 3237 3237 3238 3238 3238 3239 3239 3239 3239 3239 3240 3240 3240 3240 3241 3241 3241 3242 3242 3242 3243 3244 3244 3245 3245 3245 3246 3246 3246 3247 3246 3246 3246 3245 3245 3246 3246 3247 3248 3249 3250 3251 3251 3252 3252 3253 3253 3253 3253 3253 3252 3252 3252 3251 3251 3250 3249 3248 3247 3246 3244 3243 3242 3241 3239 3238 3236 3235 3233 3231 3230 3228 3226 3225 3223 3221 3220 3218
3233 3233 3234 3235 3235 3236 3237 3237 3238 3238 3239 3239 3239 3239 3240 3240 3240 3240 3240 3241 3241 3241 3241 3242 3242 3242 3243 3243 3244 3244 3245 3246 3246 3246 3246 3247 3247 3247 3247 3247 3247 3247 3247 3247 3248 3249 3250 3250 3251 3252 3253 3254 3254 3254 3254 3254 3253 3253 3253 3253 3252 3251 3250 3249 3248 3247 3246 3244 3243 3242 3241 3239 3238 3236 3235 3233 3231 3230 3228 3226 3224 3223 3221 3219 3217
3233 3234 3234 3235 3236 3236 3237 3238 3238 3239 3239 3239 3240 3240 3240 3240 3240 3240 3241 3241 3241 3241 3242 3242 3243 3243 3243 3243 3244 3245 3245 3246 3246 3246 3247 3247 3248 3248 3248 3248 3248 3248 3249 3249 3249 3250 3250 3251 3252 3253 3254 3254 3255 3255 3255 3255 3254 3254 3254 3253 3253 3252 3251 3249 3248 3247 3246 3244 3243 3242 3240 3239 3238 3236 3235 3233 3231 3229 3227 3226 3224 3222 3220 3218 3216
3233 3234 3235 3235 3236 3237 3238 3238 3238 3239 3239 3240 3240 3240 3240 3240 3240 3241 3241 3241 3242 3242 3242 3243 3243 3243 3243 3244 3244 3245 3245 3246 3247 3247 3247 3247 3248 3248 3249 3249 3249 3250 3250 3251 3251 3251 3252 3252 3253 3254 3255 3255 3255 3255 3255 3255 3255 3254 3254 3253 3253 3252 3250 3249 3248 3247 3246 3244 3243 3242 3240 3239 3238 3236 3234 3233 3231 3229 3227 3225 3223 3221 3219 3217 3216
3233 3234 3235 3236 3236 3237 3238 3238 3239 3239 3240 3240 3240 3241 3241 3241 3241 3241 3241 3242 3242 3243 3243 3244 3244 3244 3244 3244 3245 3245 3246 3246 3247 3247 3247 3248 3248 3248 3249 3250 3250 3251 3251 3252 3252 3253 3253 3254 3254 3255 3255 3256 3256 3256 3256 3256 3255 3255 3254 3254 3253 3251 3250 3249 3248 3247 3245 3244 3243 3242 3240 3239 3237 3236 3234 3232 3230 3228 3226 3224 3222 3221 3219 3217 3215
3233 3234 3235 3236 3237 3237 3238 3238 3239 3239 3240 3240 3241 3241 3241 3241 3241 3242 3242 3242 3242 3243 3243 3244 3245 3245 3245 3245 3246 3246 3247 3247 3248 3248 3248 3249 3249 3249 3249 3250 3251 3252 3252 3253 3253 3254 3255 3255 3255 3256 3256 3257 3257 3256 3256 3256 3256 3255 3254 3253 3252 3251 3250 3248 3247 3246 3245 3244 3243 3241 3240 3239 3237 3235 3233 3231 3229 3227 3225 3224 3222 3220 3218 3216 3214
3234 3235 3235 3236 3237 3237 3238 3239 3239 3239 3240 3240 3241 3241 3241 3242 3242 3242 3242 3243 3243 3243 3244 3244 3245 3245 3245 3246 3246 3247 3247 3248 3248 3248 3249 3249 3250 3250 3250 3251 3251 3252 3253 3254 3254 3255 3255 3256 3256 3257 3257 3257 3257 3257 3257 3257 3256 3256 3254 3253 3252 3251 3249 3248 3247 3246 3245 3244 3242 3241 3240 3238 3236 3234 3232 3230 3228 3226 3225 3223 3221 3220 3218 3216 3214
3234 3235 3235 3236 3237 3237 3238 3238 3239 3240 3240 3241 3241 3241 3242 3242 3242 3243 3243 3243 3243 3244 3244 3244 3245 3245 3246 3246 3246 3247 3248 3248 3249 3249 3249 3250 3250 3250 3251 3251 3252 3253 3254 3255 3255 3256 3256 3257 3257 3258 3258 3259 3259 3258 3258 3257 3257 3256 3254 3253 3252 3251 3249 3248 3247 3245 3244 3243 3242 3240 3239 3237 3235 3233 3231 3230 3228 3226 3224 3223 3221 3220 3218 3217 3215
3233 3234 3235 3235 3236 3237 3237 3238 3239 3240 3240 3241 3241 3241 3242 3242 3243 3243 3243 3244 3244 3244 3244 3245 3245 3245 3246 3246 3247 3247 3248 3248 3249 3249 3249 3250 3251 3251 3252 3252 3253 3253 3254 3255 3256 3257 3257 3258 3259 3259 3260 3260 3260 3259 3259 3258 3257 3256 3254 3253 3252 3251 3249 3248 3246 3245 3244 3243 3241 3240 3238 3236 3234 3233 3231 3229 3227 3226 3224 3223 3221 3220 3218 3217 3215
3232 3233 3234 3235 3235 3236 3237 3238 3239 3239 3240 3240 3241 3241 3242 3243 3243 3244 3244 3244 3245 3244 3244 3245 3245 3246 3246 3246 3247 3247 3248 3249 3249 3249 3250 3250 3251 3252 3252 3253 3254 3254 3255 3256 3257 3258 3258 3259 3259 3260 3260 3260 3260 3259 3259 3258 3257 3255 3254 3253 3252 3250 3248 3247 3246 3245 3243 3242 3241 3239 3237 3235 3234 3232 3230 3229 3227 3226 3224 3223 3221 3220 3218 3217 3215
3231 3232 3233 3234 3235 3235 3236 3237 3238 3239 3240 3240 3241 3241 3242 3243 3243 3244 3244 3244 3245 3245 3245 3245 3246 3246 3246 3247 3247 3247 3248 3249 3249 3249 3250 3251 3251 3252 3253 3253 3254 3255 3256 3257 3257 3258 3259 3259 3260 3260 3261 3261 3260 3260 3258 3257 3256 3255 3254 3252 3251 3249 3248 3247 3246 3244 3243 3242 3240 3238 3237 3235 3233 3231 3230 3229 3227 3226 3224 3223 3221 3220 3218 3217 3215
3230 3231 3232 3233 3234 3234 3235 3236 3237 3238 3239 3240 3240 3241 3241 3242 3243 3243 3244 3244 3244 3245 3245 3245 3246 3246 3246 3247 3247 3247 3248 3249 3249 3250 3250 3251 3252 3252 3253 3254 3255 3255 3256 3257 3258 3258 3259 3259 3260 3260 3261 3261 3260 3259 3258 3256 3255 3254 3253 3252 3250 3249 3247 3246 3245 3244 3243 3241 3240 3238 3236 3234 3232 3231 3230 3228 3227 3225 3224 3222 3221 3219 3218 3217 3215
3228 3229 3231 3232 3233 3233 3234 3235 3236 3237 3238 3239 3240 3240 3241 3242 3242 3243 3243 3244 3244 3245 3245 3245 3246 3246 3246 3247 3247 3247 3248 3248 3249 3250 3251 3251 3252 3253 3254 3254 3255 3256 3257 3257 3258 3258 3259 3259 3260 3260 3261 3260 3260 3259 3257 3256 3255 3253 3252 3251 3249 3248 3247 3246 3245 3243 3242 3240 3239 3237 3235 3233 3232 3230 3229 3228 3226 3225 3223 3222 3220 3219 3218 3217 3215
3226 3228 3229 3231 3232 3233 3233 3234 3235 3236 3237 3238 3239 3239 3240 3241 3242 3242 3243 3243 3244 3244 3245 3245 3245 3246 3246 3247 3247 3247 3248 3248 3249 3250 3250 3251 3252 3253 3254 3255 3255 3256 3257 3258 3258 3258 3259 3259 3260 3260 3260 3260 3259 3258 3257 3255 3254 3252 3251 3250 3249 3248 3247 3245 3244 3242 3241 3240 3238 3236 3234 3233 3231 3230 3228 3227 3225 3224 3222 3221 3220 3218 3217 3216 3214
3225 3226 3228 3229 3231 3232 3232 3233 3234 3235 3236 3237 3237 3238 3239 3240 3241 3242 3242 3243 3243 3244 3244 3245 3245 3246 3246 3246 3247 3247 3247 3248 3249 3249 3250 3251 3252 3253 3254 3255 3255 3256 3257 3257 3258 3258 3259 3259 3259 3259 3260 3259 3258 3257 3256 3255 3253 3252 3250 3249 3248 3247 3246 3245 3243 3242 3240 3239 3238 3236 3234 3233 3231 3229 3227 3226 3224 3223 3221 3220 3219 3217 3216 3215 3213
3223 3224 3226 3227 3229 3230 3231 3232 3233 3234 3235 3236 3236 3237 3238 3239 3240 3241 3241 3242 3243 3243 3243 3244 3245 3245 3245 3246 3246 3247 3247 3247 3248 3249 3250 3250 3251 3252 3253 3254 3255 3256 3256 3257 3257 3258 3258 3258 3258 3258 3258 3258 3257 3256 3255 3254 3253 3251 3250 3248 3247 3246 3245 3244 3243 3241 3240 3239 3237 3236 3234 3232 3230 3228 3226 3225 3223 3222 3220 3218 3217 3215 3214 3213 3212
3221 3222 3224 3225 3227 3228 3229 3230 3231 3232 3233 3234 3235 3236 3237 3238 3239 3240 3240 3241 3242 3242 3243 3243 3244 3244 3245 3245 3246 3246 3246 3247 3248 3248 3249 3250 3250 3251 3252 3253 3254 3255 3255 3256 3256 3257 3257 3257 3257 3257 3257 3257 3256 3255 3254 3253 3252 3251 3250 3248 3247 3245 3244 3243 3242 3241 3240 3238 3237 3236 3234 3232 3230 3227 3225 3224 3222 3220 3218 3216 3215 3214 3213 3212 3211
3219 3221 3222 3223 3224 3226 3227 3228 3229 3230 3232 3233 3234 3235 3236 3237 3238 3239 3239 3240 3240 3241 3242 3242 3243 3243 3243 3244 3245 3245 3246 3246 3247 3247 3248 3249 3250 3251 3251 3252 3253 3254 3254 3255 3255 3255 3256 3256 3256 3256 3256 3256 3255 3254 3253 3253 3251 3250 3249 3247 3246 3244 3244 3243 3242 3241 3239 3238 3237 3235 3233 3231 3229 3226 3225 3223 3222 3220 3217 3215 3214 3213 3212 3211 3210
3217 3219 3220 3221 3222 3223 3225 3226 3227 3229 3230 3231 3232 3233 3235 3236 3237 3237 3238 3238 3239 3240 3240 3241 3241 3242 3242 3243 3244 3244 3244 3245 3246 3246 3247 3248 3249 3249 3250 3251 3252 3252 3253 3253 3254 3254 3254 3255 3255 3255 3255 3255 3254 3254 3253 3252 3251 3249 3247 3246 3245 3244 3243 3242 3242 3240 3239 3238 3237 3234 3232 3230 3228 3226 3224 3223 3221 3219 3216 3214 3213 3212 3211 3210 3208
3214 3216 3217 3219 3220 3221 3223 3224 3225 3227 3228 3229 3230 3231 3233 3234 3235 3236 3236 3237 3238 3238 3239 3239 3240 3240 3241 3242 3242 3242 3243 3244 3245 3245 3246 3246 3247 3248 3249 3250 3250 3250 3251 3251 3252 3252 3252 3253 3253 3253 3253 3253 3253 3253 3251 3250 3249 3248 3247 3246 3244 3243 3243 3242 3241 3240 3238 3236 3235 3234 3231 3229 3227 3225 3223 3222 3220 3218 3216 3214 3212 3211 3210 3208 3207
3210 3212 3214 3216 3217 3219 3220 3222 3223 3224 3225 3226 3227 3229 3230 3231 3232 3234 3234 3235 3236 3236 3237 3238 3238 3239 3239 3240 3240 3241 3241 3242 3243 3244 3244 3245 3245 3246 3247 3248 3248 3248 3249 3249 3249 3250 3250 3251 3251 3252 3252 3252 3252 3252 3250 3249 3247 3246 3245 3245 3244 3242 3242 3241 3240 3239 3237 3235 3234 3232 3230 3228 3226 3224 3223 3221 3219 3217 3215 3213 3211 3210 3208 3207 3205
3207 3209 3211 3213 3214 3216 3217 3219 3220 3222 3223 3224 3225 3226 3227 3229 3230 3231 3232 3233 3234 3235 3235 3236 3236 3236 3237 3238 3238 3239 3239 3240 3241 3242 3242 3243 3243 3244 3245 3245 3246 3246 3247 3247 3247 3248 3248 3248 3249 3250 3250 3250 3251 3250 3249 3247 3246 3244 3243 3244 3244 3242 3241 3240 3239 3237 3236 3234 3233 3231 3229 3227 3225 3224 3222 3220 3218 3216 3214 3212 3210 3208 3206 3205 3203
3205 3207 3208 3210 3211 3212 3214 3216 3217 3219 3220 3221 3222 3224 3225 3226 3228 3229 3230 3231 3232 3232 3233 3233 3234 3234 3235 3236 3236 3237 3237 3238 3239 3239 3240 3240 3241 3242 3243 3243 3243 3243 3244 3244 3245 3245 3246 3246 3247 3248 3248 3249 3249 3249 3247 3245 3244 3243 3242 3242 3242 3241 3240 3239 3237 3236 3235 3233 3232 3231 3229 3226 3224 3223 3222 3219 3217 3215 3213 3211 3209 3206 3204 3203 3201
3203 3205 3206 3207 3207 3209 3211 3212 3214 3215 3216 3218 3220 3222 3223 3224 3226 3227 3228 3229 3229 3230 3230 3231 3231 3232 3233 3233 3234 3235 3235 3235 3236 3237 3237 3238 3238 3239 3240 3241 3241 3241 3241 3242 3242 3243 3243 3244 3245 3246 3246 3247 3248 3247 3245 3244 3242 3241 3241 3241 3240 3239 3238 3237 3235 3234 3233 3232 3230 3229 3228 3225 3223 3222 3220 3218 3216 3214 3212 3210 3207 3205 3203 3201 3200
3201 3202 3203 3204 3205 3206 3207 3209 3211 3212 3213 3215 3218 3219 3221 3222 3223 3224 3225 3226 3227 3227 3228 3228 3229 3229 3230 3231 3232 3232 3233 3233 3234 3234 3235 3235 3236 3236 3237 3238 3238 3239 3239 3239 3240 3240 3241 3241 3242 3243 3243 3245 3246 3245 3243 3242 3240 3240 3240 3239 3238 3237 3236 3235 3233 3232 3232 3231 3229 3228 3226 3224 3222 3220 3219 3217 3215 3213 3211 3208 3206 3203 3202 3200 3198
3198 3199 3200 3201 3202 3203 3205 3206 3207 3209 3210 3213 3215 3217 3218 3220 3221 3221 3222 3223 3223 3224 3225 3225 3226 3227 3227 3228 3229 3230 3230 3231 3232 3232 3232 3233 3233 3233 3234 3235 3235 3236 3236 3237 3237 3238 3238 3238 3239 3241 3241 3242 3243 3243 3241 3239 3239 3239 3238 3237 3236 3235 3234 3233 3231 3230 3230 3229 3228 3226 3225 3223 3220 3218 3217 3215 3214 3212 3209 3206 3204 3202 3200 3199 3197
3195 3195 3196 3198 3199 3201 3202 3203 3204 3206 3207 3210 3212 3213 3215 3217 3218 3218 3219 3219 3220 3220 3221 3222 3223 3224 3224 3225 3226 3227 3228 3228 3229 3230 3230 3230 3231 3231 3231 3231 3232 3232 3233 3234 3235 3235 3236 3236 3237 3238 3239 3239 3240 3240 3238 3237 3237 3236 3236 3234 3233 3232 3231 3230 3229 3228 3228 3227 3226 3224 3223 3221 3218 3216 3215 3213 3212 3210 3208 3205 3202 3200 3199 3197 3195
3191 3192 3194 3195 3196 3198 3199 3200 3201 3203 3204 3207 3209 3210 3212 3213 3214 3215 3215 3215 3216 3216 3217 3218 3219 3220 3221 3222 3223 3224 3225 3225 3226 3227 3228 3228 3228 3228 3228 3228 3229 3229 3230 3231 3232 3232 3233 3233 3234 3235 3236 3236 3237 3237 3236 3235 3235 3234 3232 3231 3230 3229 3228 3228 3227 3226 3225 3224 3223 3222 3221 3219 3217 3215 3213 3211 3210 3209 3207 3204 3201 3199 3197 3196 3194
3188 3190 3191 3192 3193 3195 3196 3197 3198 3199 3201 3204 3206 3207 3208 3210 3211 3211 3211 3211 3212 3212 3213 3214 3215 3216 3218 3219 3219 3220 3222 3223 3223 3224 3225 3226 3226 3226 3226 3226 3226 3227 3227 3228 3229 3229 3230 3230 3231 3232 3233 3233 3233 3234 3233 3233 3232 3231 3229 3228 3227 3226 3225 3225 3224 3223 3222 3222 3222 3220 3219 3218 3216 3214 3212 3210 3208 3207 3205 3203 3200 3198 3196 3195 3194
3185 3186 3188 3189 3191 3192 3193 3194 3195 3196 3198 3201 3202 3204 3205 3206 3207 3207 3207 3207 3207 3208 3209 3210 3211 3213 3214 3215 3216 3217 3218 3220 3221 3222 3223 3223 3223 3223 3224 3224 3224 3224 3225 3226 3226 3226 3226 3227 3227 3228 3229 3229 3230 3230 3230 3230 3229 3228 3227 3226 3225 3223 3222 3222 3222 3221 3220 3220 3219 3218 3217 3216 3214 3212 3210 3208 3206 3204 3203 3201 3199 3197 3195 3194 3193
3182 3183 3185 3186 3188 3189 3190 3191 3192 3193 3195 3197 3199 3200 3202 3202 3202 3202 3202 3203 3203 3204 3205 3207 3208 3209 3210 3212 3213 3214 3215 3217 3218 3220 3220 3220 3220 3220 3221 3222 3222 3223 3223 3224 3224 3223 3223 3224 3224 3225 3225 3226 3226 3227 3227 3227 3226 3225 3224 3223 3222 3220 3219 3219 3219 3219 3218 3218 3216 3215 3214 3213 3211 3209 3207 3205 3203 3201 3200 3199 3197 3196 3194 3193 3191
3178 3180 3182 3183 3184 3186 3187 3188 3189 3190 3192 3194 3196 3197 3198 3199 3198 3198 3198 3199 3199 3200 3202 3203 3205 3206 3207 3208 3209 3211 3212 3214 3216 3217 3217 3217 3217 3218 3219 3220 3220 3221 3222 3223 3222 3221 3221 3221 3221 3221 3222 3222 3223 3224 3224 3223 3222 3221 3221 3220 3219 3218 3217 3217 3217 3216 3216 3215 3213 3212 3211 3210 3208 3206 3204 3202 3201 3199 3197 3196 3195 3194 3193 3192 3190
3175 3177 3178 3179 3180 3182 3183 3185 3186 3187 3188 3190 3192 3193 3194 3195 3195 3195 3195 3195 3195 3196 3198 3199 3201 3202 3203 3205 3206 3207 3209 3211 3213 3214 3214 3215 3215 3216 3217 3216 3217 3219 3221 3220 3219 3218 3218 3217 3217 3218 3218 3219 3219 3220 3220 3220 3219 3218 3218 3217 3216 3215 3215 3215 3214 3214 3213 3211 3210 3209 3208 3207 3205 3204 3202 3200 3198 3197 3196 3194 3193 3191 3190 3189 3188